Latest Weather Observations for Norah Head

IDN60801

Issued at 7:05 am EDT Friday 6 March 2015 (issued every 30 minutes, with the page automatically refreshed every 10 minutes)

About weather observations | Map of weather stations | Latest weather observations for NSW | Other Formats
Station Details ID: 061366 Name: NORAH HEAD AWS Lat: -33.28 Lon: 151.58 Height: 18.8 m
Data from the previous 72 hours. | See also: Recent months at Norah Head
Date/Time
EDT
Temp
°C
App
Temp
°C
Dew
Point
Rel
Hum
%
Delta-T
°C
Wind Press
QNH
hPa
Press
MSL
hPa
Rain
since 9 am
mm
Dir
 
Spd
km/h
Gust
km/h
Spd
kts
Gust
kts
06/07:00am 17.1 16.6 13.8 81 1.9 NW 9 13 5 7 1008.6 1008.6 0.2
06/06:30am 16.9 16.7 13.0 78 2.2 WNW 6 11 3 6 1008.8 1008.8 0.2
06/06:00am 16.9 16.5 13.0 78 2.2 WNW 7 15 4 8 1009.0 1009.0 0.2
06/05:30am 16.7 16.4 12.7 77 2.2 WNW 6 9 3 5 1009.1 1009.1 0.2
06/05:00am 17.0 16.8 13.1 78 2.2 WNW 6 9 3 5 1009.2 1009.2 0.2
06/04:30am 17.4 17.2 13.7 79 2.1 W 7 9 4 5 1009.4 1009.3 0.2
06/04:00am 17.6 17.4 13.7 78 2.2 W 7 11 4 6 1009.8 1009.7 0.2
06/03:30am 17.9 17.7 13.6 76 2.4 W 7 11 4 6 1010.1 1010.0 0.2
06/03:00am 18.3 18.2 13.4 73 2.8 W 6 9 3 5 1010.4 1010.3 0.2
06/02:30am 18.8 18.5 13.4 71 3.1 W 7 11 4 6 1010.8 1010.7 0.2
06/02:00am 19.6 19.1 12.6 64 3.9 SSE 7 11 4 6 1011.3 1011.2 0.2
06/01:30am 19.9 19.2 11.9 60 4.4 ESE 7 11 4 6 1011.6 1011.5 0.2
06/01:00am 19.9 19.5 12.4 62 4.2 ESE 6 9 3 5 1012.0 1011.9 0.2
06/12:30am 20.0 19.1 12.7 63 4.1 SE 9 13 5 7 1012.3 1012.2 0.2
06/12:00am 19.8 17.9 13.0 65 3.9 SSE 15 24 8 13 1012.4 1012.3 0.2
 
Date/Time
EDT
Temp
°C
App
Temp
°C
Dew
Point
Rel
Hum
%
Delta-T
°C
Wind Press
QNH
hPa
Press
MSL
hPa
Rain
since 9 am
mm
Dir
 
Spd
km/h
Gust
km/h
Spd
kts
Gust
kts
05/11:30pm 19.8 17.4 12.8 64 4.0 SSE 17 22 9 12 1012.5 1012.4 0.2
05/11:00pm 20.3 17.2 13.3 64 4.0 SSE 22 28 12 15 1012.8 1012.7 0.2
05/10:30pm 20.4 16.5 13.4 64 4.0 SSE 26 32 14 17 1012.9 1012.8 0.2
05/10:00pm 20.5 15.4 13.0 62 4.3 SSE 32 35 17 19 1012.8 1012.7 0.2
05/09:30pm 20.5 15.7 13.0 62 4.3 SSE 30 39 16 21 1012.6 1012.5 0.2
05/09:00pm 20.4 15.1 13.1 63 4.2 SSE 33 39 18 21 1012.2 1012.1 0.2
05/08:30pm 20.4 15.4 14.1 67 3.6 SSE 33 43 18 23 1011.5 1011.4 0.2
05/08:00pm 20.4 14.3 13.1 63 4.2 SSE 37 43 20 23 1011.0 1010.9 0.2
05/07:30pm 20.5 14.2 13.5 64 4.0 SSE 39 46 21 25 1010.5 1010.4 0.2
05/07:00pm 20.5 14.3 13.7 65 3.9 SSE 39 48 21 26 1010.1 1010.0 0.2
05/06:30pm 20.6 13.5 13.3 63 4.2 SSE 43 54 23 29 1009.7 1009.6 0.2
05/06:00pm 20.9 13.5 14.1 65 4.0 SSE 46 54 25 29 1009.0 1009.0 0.2
05/05:30pm 21.2 13.0 15.1 68 3.6 SSE 52 65 28 35 1008.8 1008.8 0.2
05/05:00pm 21.5 12.5 14.9 66 3.9 S 56 65 30 35 1008.2 1008.2 0.2
05/04:30pm 21.8 13.3 15.4 67 3.8 SSE 54 61 29 33 1007.9 1007.9 0.2
05/04:00pm 21.9 13.9 16.6 72 3.2 S 54 61 29 33 1007.7 1007.7 0.2
05/03:30pm 22.1 13.9 17.0 73 3.1 S 56 63 30 34 1007.5 1007.5 0.2
05/03:00pm 22.3 13.6 17.2 73 3.1 SSE 59 69 32 37 1007.2 1007.2 0.2
05/02:30pm 23.0 15.6 17.2 70 3.6 S 52 70 28 38 1007.1 1007.1 0.2
05/02:25pm 23.8 18.4 17.1 66 4.1 S 41 70 22 38 1006.9 1006.9 0.2
05/02:24pm 24.6 19.5 15.8 58 5.3 S 37 69 20 37 1007.0 1007.0 0.2
05/02:00pm 25.3 20.3 13.5 48 6.9 S 32 43 17 23 1006.9 1006.9 0.2
05/01:30pm 25.5 22.6 15.2 53 6.2 S 24 30 13 16 1006.8 1006.8 0.2
05/01:00pm 27.3 24.5 8.7 31 10.2 SW 13 24 7 13 1006.9 1006.9 0.2
05/12:30pm 27.5 27.1 16.1 49 7.0 SW 13 28 7 15 1006.8 1006.8 0.2
05/12:00pm 27.3 24.9 10.1 34 9.6 SW 13 24 7 13 1007.0 1007.0 0.2
05/11:30am 27.6 25.7 9.0 31 10.2 WSW 9 26 5 14 1007.1 1007.1 0.2
05/11:00am 27.3 26.4 10.5 35 9.5 WSW 6 13 3 7 1007.2 1007.2 0.2
05/10:30am 26.6 25.1 9.0 33 9.6 SW 7 19 4 10 1006.8 1006.8 0.2
05/10:00am 26.3 25.6 12.0 41 8.2 WSW 7 13 4 7 1006.2 1006.2 0.2
05/09:30am 25.2 25.2 13.7 49 6.8 WNW 6 15 3 8 1005.9 1005.9 0.0
05/09:00am 24.2 24.1 14.0 53 6.0 W 7 15 4 8 1006.0 1006.0 0.0
05/08:30am 23.2 24.8 17.0 68 3.8 W 4 9 2 5 1005.9 1005.9 0.0
05/08:00am 22.1 23.9 18.3 79 2.4 WNW 6 7 3 4 1005.6 1005.6 0.0
05/07:30am 21.4 22.4 17.8 80 2.2 WNW 9 17 5 9 1005.2 1005.2 0.0
05/07:00am 21.2 21.4 17.6 80 2.2 W 13 19 7 10 1004.7 1004.7 0.0
05/06:30am 20.6 22.5 19.8 95 0.5 WNW 9 13 5 7 1004.3 1004.3 0.0
05/06:00am 21.1 23.5 20.8 98 0.2 WNW 9 17 5 9 1004.1 1004.1 0.0
05/05:30am 21.1 24.5 20.9 99 0.1 NNW 4 7 2 4 1003.9 1003.9 0.0
05/05:00am 20.9 24.1 20.6 98 0.2 NNW 4 7 2 4 1004.1 1004.1 0.0
05/04:30am 20.7 23.3 20.4 98 0.2 NW 7 9 4 5 1004.3 1004.3 0.0
05/04:00am 21.0 24.3 20.8 99 0.1 SW 4 7 2 4 1004.7 1004.7 0.0
05/03:30am 21.2 25.0 21.0 99 0.1 W 2 7 1 4 1005.0 1005.0 0.0
05/03:00am 21.7 25.1 21.7 100 0.0 WSW 6 7 3 4 1005.4 1005.4 0.0
05/02:30am 21.8 25.7 21.8 100 0.0 SW 4 7 2 4 1005.9 1005.9 0.0
05/02:00am 22.2 24.6 22.2 100 0.0 SSW 13 17 7 9 1006.3 1006.3 0.0
05/01:30am 22.5 25.8 22.5 100 0.0 SSW 9 13 5 7 1006.7 1006.7 0.0
05/01:00am 22.5 25.4 22.5 100 0.0 SSW 11 13 6 7 1007.1 1007.1 0.0
05/12:30am 22.6 25.8 22.4 99 0.1 SSW 9 13 5 7 1007.2 1007.2 0.0
05/12:00am 22.4 26.0 22.1 98 0.2 SSW 6 6 3 3 1007.5 1007.5 0.0
 
Date/Time
EDT
Temp
°C
App
Temp
°C
Dew
Point
Rel
Hum
%
Delta-T
°C
Wind Press
QNH
hPa
Press
MSL
hPa
Rain
since 9 am
mm
Dir
 
Spd
km/h
Gust
km/h
Spd
kts
Gust
kts
04/11:30pm 22.7 27.6 22.4 98 0.2 CALM 0 0 0 0 1007.8 1007.8 0.0
04/11:00pm 22.5 26.8 22.0 97 0.3 S 2 4 1 2 1007.9 1007.9 0.0
04/10:30pm 22.5 26.4 21.8 96 0.5 SSW 4 6 2 3 1008.2 1008.2 0.0
04/10:00pm 22.7 27.4 22.0 96 0.5 CALM 0 0 0 0 1008.6 1008.6 0.0
04/09:30pm 22.7 26.7 22.0 96 0.5 N 4 6 2 3 1008.5 1008.5 0.0
04/09:00pm 22.8 26.8 22.0 95 0.5 NNE 4 6 2 3 1008.5 1008.5 0.0
04/08:30pm 22.9 26.4 22.1 95 0.5 N 7 9 4 5 1008.4 1008.4 0.0
04/08:00pm 23.0 26.1 22.2 95 0.5 N 9 11 5 6 1008.2 1008.2 0.0
04/07:30pm 23.2 25.8 22.0 93 0.8 NNE 11 13 6 7 1008.3 1008.3 0.0
04/07:00pm 23.6 26.2 21.9 90 1.1 NNE 11 13 6 7 1008.3 1008.3 0.0
04/06:30pm 24.2 27.2 21.3 84 1.9 NE 7 9 4 5 1008.4 1008.4 0.0
04/06:00pm 24.7 27.4 21.4 82 2.2 ENE 9 11 5 6 1008.5 1008.5 0.0
04/05:30pm 24.7 27.3 21.2 81 2.3 SE 9 11 5 6 1008.8 1008.8 0.0
04/05:00pm 24.6 26.7 20.9 80 2.4 ESE 11 13 6 7 1008.9 1008.9 0.0
04/04:30pm 25.2 27.2 21.5 80 2.5 SE 13 15 7 8 1009.0 1009.0 0.0
04/04:00pm 25.5 27.1 22.2 82 2.2 SSE 17 20 9 11 1009.4 1009.3 0.0
04/03:30pm 25.4 26.6 22.1 82 2.2 S 19 22 10 12 1009.8 1009.7 0.0
04/03:00pm 25.5 27.4 22.0 81 2.3 S 15 19 8 10 1010.0 1009.9 0.0
04/02:30pm 24.9 25.9 21.8 83 2.1 S 19 22 10 12 1010.4 1010.3 0.0
04/02:00pm 25.6 27.2 21.5 78 2.7 S 15 17 8 9 1010.7 1010.6 0.0
04/01:30pm 25.9 28.1 21.8 78 2.7 S 13 15 7 8 1011.1 1011.0 0.0
04/01:00pm 25.1 26.8 21.0 78 2.7 S 13 15 7 8 1011.5 1011.4 0.0
04/12:30pm 25.8 28.6 21.5 77 2.9 SSE 9 11 5 6 1011.9 1011.8 0.0
04/12:00pm 25.5 28.5 21.2 77 2.8 SE 7 7 4 4 1012.2 1012.1 0.0
04/11:30am 26.3 29.5 21.3 74 3.3 NE 6 7 3 4 1012.5 1012.4 0.0
04/11:00am 26.8 30.9 23.9 84 2.0 NNE 9 13 5 7 1012.6 1012.5 0.0
04/10:30am 23.0 24.7 20.9 88 1.4 NNE 13 15 7 8 1012.8 1012.7 0.0
04/10:00am 23.0 24.4 21.1 89 1.2 NNE 15 17 8 9 1012.8 1012.7 0.0
04/09:30am 23.1 24.3 21.4 90 1.1 NE 17 20 9 11 1012.9 1012.8 0.0
04/09:00am 22.9 23.6 21.2 90 1.1 NE 19 20 10 11 1012.9 1012.8 0.0
04/08:30am 22.6 22.2 20.9 90 1.1 NE 24 30 13 16 1012.5 1012.4 0.0
04/08:00am 22.6 22.6 20.9 90 1.1 NE 22 28 12 15 1012.3 1012.2 0.0
04/07:30am 22.4 22.7 20.5 89 1.2 ENE 19 24 10 13 1012.3 1012.2 0.0
04/07:00am 22.5 23.2 20.4 88 1.4 E 17 22 9 12 1011.9 1011.8 0.0
04/06:30am 22.5 23.6 20.4 88 1.4 E 15 17 8 9 1011.7 1011.6 0.0
04/06:00am 22.4 23.9 20.5 89 1.2 E 13 17 7 9 1011.9 1011.8 0.0
04/05:30am 22.4 23.5 20.5 89 1.2 E 15 17 8 9 1011.6 1011.5 0.0
04/05:00am 22.5 24.7 20.4 88 1.4 E 9 13 5 7 1011.6 1011.5 0.0
04/04:30am 22.5 23.4 20.0 86 1.6 ENE 15 17 8 9 1011.5 1011.4 0.0
04/04:00am 22.6 24.4 20.3 87 1.5 E 11 15 6 8 1011.7 1011.6 0.0
04/03:30am 22.6 24.8 20.3 87 1.5 E 9 11 5 6 1012.1 1012.0 0.0
04/03:00am 22.6 24.7 20.1 86 1.6 E 9 11 5 6 1012.1 1012.0 0.0
04/02:30am 22.6 24.7 20.1 86 1.6 E 9 11 5 6 1012.2 1012.1 0.0
04/02:00am 22.4 24.1 20.1 87 1.5 E 11 13 6 7 1012.6 1012.5 0.0
04/01:30am 22.5 24.7 20.4 88 1.4 E 9 11 5 6 1013.0 1012.9 0.0
04/01:00am 22.4 24.6 20.5 89 1.2 E 9 9 5 5 1013.0 1012.9 0.0
04/12:30am 22.6 24.9 20.7 89 1.2 ENE 9 11 5 6 1013.2 1013.1 0.0
04/12:00am 22.4 24.6 20.5 89 1.2 ENE 9 13 5 7 1013.3 1013.2 0.0
 
Date/Time
EDT
Temp
°C
App
Temp
°C
Dew
Point
Rel
Hum
%
Delta-T
°C
Wind Press
QNH
hPa
Press
MSL
hPa
Rain
since 9 am
mm
Dir
 
Spd
km/h
Gust
km/h
Spd
kts
Gust
kts
03/11:30pm 22.5 24.0 20.6 89 1.2 NE 13 15 7 8 1013.5 1013.4 0.0
03/11:00pm 22.5 23.9 20.4 88 1.4 NE 13 15 7 8 1013.7 1013.6 0.0
03/10:30pm 22.6 24.0 20.3 87 1.5 NE 13 17 7 9 1013.9 1013.8 0.0
03/10:00pm 22.7 23.3 20.2 86 1.6 NE 17 20 9 11 1014.1 1014.0 0.0
03/09:30pm 22.8 23.0 20.1 85 1.7 NE 19 22 10 12 1013.8 1013.7 0.0
03/09:00pm 22.8 22.7 20.0 84 1.8 NNE 20 26 11 14 1013.7 1013.6 0.0
03/08:30pm 22.9 22.9 20.1 84 1.8 NNE 20 24 11 13 1013.6 1013.5 0.0
03/08:00pm 22.8 23.0 20.1 85 1.7 NNE 19 22 10 12 1013.2 1013.1 0.0
03/07:30pm 22.9 23.4 20.1 84 1.8 NE 17 19 9 10 1013.1 1013.0 0.0
03/07:00pm 23.1 23.1 20.1 83 1.9 NE 20 24 11 13 1012.9 1012.8 0.0
03/06:30pm 23.1 22.6 19.9 82 2.1 NE 22 26 12 14 1013.1 1013.0 0.0
03/06:00pm 23.3 22.6 19.5 79 2.4 NE 22 28 12 15 1013.0 1012.9 0.0
03/05:30pm 23.6 22.3 19.1 76 2.9 NE 24 28 13 15 1013.0 1012.9 0.0
03/05:00pm 23.9 22.5 18.8 73 3.2 NE 24 30 13 16 1012.9 1012.8 0.0
03/04:30pm 25.5 23.7 19.6 70 3.8 ENE 28 32 15 17 1012.8 1012.7 0.0
03/04:00pm 25.5 23.5 19.2 68 4.0 ENE 28 32 15 17 1012.9 1012.8 0.0
03/03:30pm 25.2 23.3 18.6 67 4.2 ENE 26 30 14 16 1013.1 1013.0 0.0
03/03:00pm 25.5 23.5 18.4 65 4.5 ENE 26 30 14 16 1013.3 1013.2 0.0
03/02:30pm 26.2 24.8 18.9 64 4.7 ENE 24 28 13 15 1013.7 1013.6 0.0
03/02:00pm 25.9 24.4 18.6 64 4.6 ENE 24 26 13 14 1013.9 1013.8 0.0
03/01:30pm 26.1 24.4 18.0 61 5.1 ENE 24 26 13 14 1014.3 1014.2 0.0
03/01:00pm 27.4 26.7 19.5 62 5.1 NE 22 24 12 13 1014.7 1014.6 0.0
03/12:30pm 26.3 25.6 18.7 63 4.9 NE 20 24 11 13 1015.1 1015.0 0.0
03/12:00pm 26.2 25.8 18.9 64 4.7 NE 19 22 10 12 1015.7 1015.6 0.0
03/11:30am 24.9 24.6 17.4 63 4.7 NNE 15 19 8 10 1016.0 1015.9 0.0
03/11:00am 26.8 28.3 19.7 65 4.6 NE 11 13 6 7 1016.4 1016.3 0.0
03/10:30am 25.1 26.4 17.6 63 4.7 N 7 13 4 7 1016.6 1016.5 0.0
03/10:00am 24.4 25.9 18.1 68 4.0 N 7 9 4 5 1016.4 1016.3 0.0
03/09:30am 23.4 24.7 17.2 68 3.8 NNW 6 9 3 5 1016.4 1016.3 0.0
03/09:00am 22.3 24.0 17.2 73 3.1 NNW 4 7 2 4 1016.1 1016.0 0.0
03/08:30am 21.0 22.0 16.4 75 2.8 NW 6 7 3 4 1015.9 1015.8 0.0
03/08:00am 20.0 20.9 16.0 78 2.4 WNW 6 7 3 4 1015.9 1015.8 0.0
03/07:30am 18.6 19.1 15.5 82 1.8 WNW 7 9 4 5 1015.6 1015.5 0.0

Other Formats:

Comma delimited format used in spreadsheet applications
http://www.bom.gov.au/fwo/IDN60801/IDN60801.95770.axf

JavaScript Object Notation format (JSON) in row-major order
http://www.bom.gov.au/fwo/IDN60801/IDN60801.95770.json